Weather History for KVRB - May, 2013

Change the Weather History Date:

Friday, May 3, 2013

  Actual Average Record
Temperature  
Mean Temperature 78 °F 74 °F  
Max Temperature 87 °F 83 °F 94 °F (1997)
Min Temperature 68 °F 65 °F 53 °F (2006)
Degree Days  
Heating Degree Days 0 0  
Month to date heating degree days 0 0  
Since 1 July heating degree days 398 455  
Cooling Degree Days 13 9  
Month to date cooling degree days 26 26  
Year to date cooling degree days 617 484  
Growing Degree Days 28 (Base 50)    
Moisture  
Dew Point 68 °F    
Average Humidity 69    
Maximum Humidity 90    
Minimum Humidity 48    
Precipitation  
Precipitation 0.60 in 0.08 in 2.22 in (2001)
Month to date precipitation 3.58 0.23  
Year to date precipitation 10.61 12.24  
Sea Level Pressure  
Sea Level Pressure 29.74 in    
Wind  
Wind Speed 8 mph (SSW)    
Max Wind Speed 24 mph    
Max Gust Speed 29 mph    
Visibility 9 miles    
Events Fog , Rain , Thunderstorm    
T = Trace of Precipitation, MM = Missing Value Source: NWS Daily Summary

Daily Weather History Graph

Daily Weather History Graph

Search for Another Location

Airport or City:

Trip Planner

Search our weather history database for the weather conditions in past years. The results will help you decide how hot, cold, wet, or windy it might be!

Date:

Astronomy

May. 03, 2013 Rise Set
Actual Time 6:40 AM EDT 7:56 PM EDT
Civil Twilight 6:15 AM EDT 8:21 PM EDT
Nautical Twilight 5:46 AM EDT 8:51 PM EDT
Astronomical Twilight 5:15 AM EDT 9:21 PM EDT
Moon 2:30 AM EDT (5/3) 2:20 PM EDT (5/3)
Length of Visible Light 14h 06m
Length of Day
13h 16m
Last Quarter, 37% of the Moon is Illuminated
May 3
Last Quarter
May 9
New
May 18
First Quarter
May 25
Full
May 31
Last Quarter

Hourly Weather History & Observations

Time (EDT) Temp. Heat Index Dew Point Humidity Pressure Visibility Wind Dir Wind Speed Gust Speed Precip Events Conditions
12:53 AM 73.0 °F - 68.0 °F 84% 29.84 in 10.0 mi SE 13.8 mph - N/A   Mostly Cloudy
1:53 AM 72.0 °F - 66.9 °F 84% 29.81 in 10.0 mi ESE 8.1 mph - N/A   Clear
2:53 AM 73.0 °F - 66.9 °F 81% 29.79 in 10.0 mi ESE 12.7 mph - N/A   Partly Cloudy
3:53 AM 73.0 °F - 66.9 °F 81% 29.77 in 10.0 mi ESE 6.9 mph - N/A   Partly Cloudy
4:16 AM 73.4 °F - 68.0 °F 83% 29.77 in 10.0 mi SE 11.5 mph 18.4 mph N/A   Mostly Cloudy
4:31 AM 73.4 °F - 66.2 °F 78% 29.76 in 10.0 mi SE 16.1 mph 25.3 mph N/A   Overcast
4:53 AM 73.0 °F - 66.0 °F 79% 29.76 in 10.0 mi SE 15.0 mph 23.0 mph N/A   Mostly Cloudy
5:30 AM 73.4 °F - 68.0 °F 83% 29.77 in 10.0 mi SE 12.7 mph - N/A   Mostly Cloudy
5:41 AM 73.4 °F - 66.2 °F 78% 29.77 in 10.0 mi SSE 11.5 mph - N/A   Overcast
5:53 AM 73.0 °F - 66.9 °F 81% 29.77 in 10.0 mi SSE 8.1 mph - N/A   Overcast
6:25 AM 71.6 °F - 66.2 °F 83% 29.77 in 10.0 mi SSW 4.6 mph - N/A   Mostly Cloudy
6:53 AM 71.1 °F - 68.0 °F 90% 29.77 in 10.0 mi South 4.6 mph - 0.01 in Rain Light Rain
7:09 AM 71.6 °F - 68.0 °F 88% 29.77 in 10.0 mi SSW 5.8 mph - N/A   Mostly Cloudy
7:53 AM 70.0 °F - 68.0 °F 93% 29.77 in 10.0 mi West 4.6 mph - N/A   Partly Cloudy
8:53 AM 73.9 °F - 69.1 °F 85% 29.77 in 10.0 mi WNW 6.9 mph - N/A   Scattered Clouds
9:53 AM 77.0 °F - 68.0 °F 74% 29.78 in 10.0 mi West 8.1 mph - N/A   Partly Cloudy
10:53 AM 80.1 °F 82.3 °F 66.9 °F 64% 29.78 in 10.0 mi NNW 9.2 mph - N/A   Partly Cloudy
11:53 AM 81.0 °F 83.3 °F 66.9 °F 62% 29.77 in 10.0 mi WNW 9.2 mph 18.4 mph N/A   Scattered Clouds
12:53 PM 82.0 °F 84.5 °F 66.9 °F 60% 29.75 in 10.0 mi WNW 4.6 mph - N/A   Scattered Clouds
1:53 PM 84.9 °F 88.2 °F 68.0 °F 57% 29.73 in 9.0 mi West 8.1 mph - N/A   Scattered Clouds
2:53 PM 84.9 °F 87.1 °F 66.0 °F 53% 29.71 in 9.0 mi West 9.2 mph - N/A   Mostly Cloudy
3:53 PM 86.0 °F 87.3 °F 64.0 °F 48% 29.69 in 10.0 mi West 8.1 mph - N/A   Scattered Clouds
4:53 PM 80.1 °F 83.6 °F 71.1 °F 74% 29.69 in 10.0 mi ESE 10.4 mph - N/A   Mostly Cloudy
5:53 PM 79.0 °F - 71.1 °F 77% 29.68 in 10.0 mi ESE 9.2 mph - N/A   Scattered Clouds
6:35 PM 78.8 °F - 69.8 °F 74% 29.68 in 10.0 mi East 8.1 mph - N/A Thunderstorm Mostly Cloudy
6:53 PM 78.1 °F - 71.1 °F 79% 29.70 in 3.0 mi SSE 10.4 mph - N/A Thunderstorm Haze
7:05 PM 71.6 °F - 69.8 °F 94% 29.69 in 0.5 mi SW 19.6 mph 28.8 mph 0.05 in Fog , Rain , Thunderstorm Heavy Thunderstorms and Rain
7:11 PM 71.6 °F - 69.8 °F 94% 29.70 in 0.8 mi West 15.0 mph 28.8 mph 0.22 in Rain , Thunderstorm Heavy Thunderstorms and Rain
7:25 PM 71.6 °F - 69.8 °F 94% 29.71 in 10.0 mi SSW 6.9 mph - 0.57 in Rain Light Rain
7:53 PM 73.0 °F - 69.1 °F 87% 29.69 in 10.0 mi SW 8.1 mph - 0.59 in Thunderstorm Mostly Cloudy
8:53 PM 71.1 °F - 68.0 °F 90% 29.71 in 10.0 mi WSW 6.9 mph - N/A   Clear
9:53 PM 71.1 °F - 68.0 °F 90% 29.73 in 10.0 mi SSW 8.1 mph - N/A   Clear
10:53 PM 70.0 °F - 66.9 °F 90% 29.73 in 10.0 mi South 9.2 mph - N/A   Clear
11:53 PM 70.0 °F - 66.9 °F 90% 29.73 in 10.0 mi SSW 5.8 mph - N/A   Clear